TimeEST,TemperatureF,Dew PointF,Humidity,Sea Level PressureIn,VisibilityMPH,Wind Direction,Wind SpeedMPH,Gust SpeedMPH,PrecipitationIn,Events,Conditions,WindDirDegrees,DateUTC
12:54 AM,28.9,23.0,78,30.00,10.0,West,13.8,-,N/A,,Overcast,280,2013-02-23 05:54:00
1:54 AM,28.4,21.2,74,29.98,10.0,West,11.5,-,N/A,,Overcast,280,2013-02-23 06:54:00
2:54 AM,28.0,19.9,72,30.00,10.0,West,11.5,-,N/A,,Overcast,280,2013-02-23 07:54:00
3:54 AM,25.0,19.9,81,29.99,10.0,WSW,8.1,-,N/A,,Scattered Clouds,240,2013-02-23 08:54:00
4:54 AM,24.1,19.0,81,30.00,10.0,WSW,6.9,-,N/A,,Clear,240,2013-02-23 09:54:00
5:54 AM,23.0,18.0,81,30.00,10.0,WSW,8.1,-,N/A,,Clear,240,2013-02-23 10:54:00
6:54 AM,23.0,18.0,81,30.01,10.0,WSW,6.9,-,N/A,,Scattered Clouds,240,2013-02-23 11:54:00
7:54 AM,23.0,18.0,81,30.01,9.0,WSW,6.9,-,N/A,,Partly Cloudy,240,2013-02-23 12:54:00
8:54 AM,26.1,19.9,78,30.01,10.0,WSW,6.9,-,N/A,,Clear,250,2013-02-23 13:54:00
9:54 AM,28.0,21.0,75,30.00,10.0,West,6.9,-,N/A,,Partly Cloudy,270,2013-02-23 14:54:00
10:54 AM,30.0,21.0,69,30.00,10.0,West,6.9,-,N/A,,Partly Cloudy,280,2013-02-23 15:54:00
11:54 AM,30.9,21.0,67,30.00,10.0,West,6.9,-,N/A,,Mostly Cloudy,270,2013-02-23 16:54:00
12:27 PM,32.0,21.2,64,29.96,10.0,SW,6.9,-,N/A,,Scattered Clouds,230,2013-02-23 17:27:00
12:54 PM,32.0,19.9,61,29.99,10.0,West,9.2,-,N/A,,Partly Cloudy,260,2013-02-23 17:54:00
1:54 PM,34.0,21.9,61,29.96,10.0,WSW,9.2,-,N/A,,Partly Cloudy,240,2013-02-23 18:54:00
2:54 PM,36.0,23.0,59,29.96,10.0,WSW,11.5,-,N/A,,Partly Cloudy,250,2013-02-23 19:54:00
3:54 PM,36.0,21.9,57,29.94,10.0,WSW,10.4,-,N/A,,Scattered Clouds,240,2013-02-23 20:54:00
4:54 PM,36.0,23.0,59,29.95,10.0,WSW,8.1,-,N/A,,Scattered Clouds,240,2013-02-23 21:54:00
5:54 PM,34.0,23.0,64,29.94,10.0,West,9.2,-,N/A,,Mostly Cloudy,260,2013-02-23 22:54:00
6:54 PM,32.0,23.0,69,29.97,10.0,NW,9.2,-,N/A,,Mostly Cloudy,310,2013-02-23 23:54:00
7:54 PM,28.9,21.9,75,29.98,10.0,NW,11.5,-,N/A,,Mostly Cloudy,310,2013-02-24 00:54:00
8:54 PM,28.0,21.9,78,29.99,10.0,NW,10.4,-,N/A,,Mostly Cloudy,310,2013-02-24 01:54:00
9:54 PM,26.1,21.0,81,29.99,10.0,WNW,10.4,-,N/A,,Mostly Cloudy,290,2013-02-24 02:54:00
10:54 PM,24.1,19.9,84,29.99,8.0,WNW,4.6,-,N/A,,Scattered Clouds,300,2013-02-24 03:54:00
11:54 PM,24.1,19.9,84,30.00,7.0,WNW,6.9,-,N/A,,Mostly Cloudy,290,2013-02-24 04:54:00